Vorticity
4 2 1 2 1 -1 1 0 -0 3 3 7 8 12 7 8 6 6 7 8 8 7 7 7 5 4 7 9 9 12 15 9 14 14 22 8 13 22 43 3 28 2 35
7 3 0 3 2 -0 1 -1 0 -0 9 11 7 13 7 7 6 7 8 10 8 6 7 7 5 4 6 11 13 12 14 8 15 18 18 10 20 -3 24 10 10 -49 21
8 3 3 6 1 1 -1 -1 -0 -1 3 5 8 12 7 8 7 7 8 9 9 7 7 7 8 7 6 11 13 11 12 11 13 21 15 14 22 39 1 -1 30 38 -14
8 4 6 2 -1 2 -1 -1 2 2 2 8 8 10 8 8 8 8 10 9 9 9 7 7 8 8 9 11 14 11 11 13 14 19 18 16 13 39 7 -36 26 1 64
7 6 5 2 4 1 1 3 1 -0 5 9 8 9 9 8 7 8 9 9 7 9 8 8 9 9 10 13 16 12 12 12 13 14 25 9 9 12 29 -4 24 23 44
7 5 3 4 1 3 2 1 -2 -2 4 9 9 8 10 8 7 8 10 9 8 7 9 9 9 11 11 14 15 12 13 11 13 12 23 13 9 11 19 18 29 13 -19
5 3 3 0 -3 -1 1 -0 3 6 10 8 8 8 11 10 9 10 10 9 9 9 9 9 10 12 12 12 14 14 15 12 13 10 18 23 8 9 5 26 7 20 5
5 5 2 -1 -3 -7 -6 -5 7 12 9 8 9 10 11 10 9 10 9 9 10 8 8 9 11 12 13 13 14 15 16 12 13 10 16 25 11 4 9 12 11 20 -7
4 4 2 -1 -2 -1 -5 -2 14 6 4 11 13 12 10 10 10 9 8 9 9 10 8 9 11 13 13 12 12 13 17 14 13 12 14 21 17 3 18 -12 33 14 21
6 4 3 3 4 2 -6 21 9 10 14 12 10 9 9 10 9 8 8 8 9 9 11 9 11 12 13 10 10 11 14 14 15 11 14 17 22 12 10 23 -9 27 27
10 11 14 2 -0 -6 28 2 -2 13 13 12 10 8 9 9 7 6 8 8 8 8 9 10 10 11 14 11 10 10 11 13 15 12 12 17 22 15 5 13 -4 9 9
3 -0 8 -3 -2 38 1 -5 -2 19 14 15 11 13 9 6 6 5 7 6 7 8 8 7 12 11 11 13 11 10 10 12 14 13 10 16 21 21 14 8 17 -19 37
3 -3 12 3 33 5 -5 -7 14 12 12 12 9 8 10 8 6 5 4 5 6 5 4 5 7 10 11 12 12 12 11 9 14 14 11 14 20 20 16 6 12 13 -4
28 15 17 16 3 2 -3 6 17 9 9 12 11 9 10 10 10 7 6 7 4 4 3 3 5 7 9 13 12 11 12 11 12 15 14 13 18 21 17 9 -3 8 -12
10 2 7 6 4 -2 4 14 10 5 8 11 11 10 9 8 8 8 7 6 5 6 4 2 1 4 7 11 14 11 13 11 12 14 15 14 16 23 18 16 13 15 23
17 12 8 1 2 13 14 5 12 15 13 9 8 7 3 2 4 8 8 7 8 8 6 5 4 2 4 10 13 13 12 11 12 14 16 15 16 17 21 17 11 7 6
3 6 6 17 14 10 19 14 10 2 2 5 5 4 3 6 7 10 13 11 13 14 12 14 14 13 9 12 13 14 13 13 12 14 16 16 16 14 19 16 19 12 6
16 19 9 9 10 10 5 4 7 8 8 8 5 9 15 17 17 15 13 14 14 14 14 13 13 16 15 14 15 14 13 14 13 13 16 18 16 16 12 17 18 18 14
16 9 13 7 4 9 8 5 8 7 9 11 16 13 11 13 12 11 10 10 8 9 8 8 10 9 11 13 15 15 13 14 14 13 18 19 18 17 13 15 18 18 13
14 8 4 4 6 8 6 7 11 14 17 17 8 15 9 4 13 10 10 15 17 13 11 9 10 10 13 17 15 14 13 14 15 13 16 20 19 17 16 11 17 17 18
4 5 6 7 8 13 14 13 9 13 10 10 14 16 8 15 15 14 24 21 18 16 15 13 13 14 15 16 17 14 14 14 15 14 16 17 23 18 16 15 12 12 19
8 8 6 8 12 6 6 8 12 12 14 15 9 8 22 14 20 20 19 21 18 16 15 15 15 15 14 15 16 15 14 14 14 13 16 17 19 23 15 16 11 10 14
4 4 7 10 10 10 11 14 11 8 8 4 12 19 12 18 21 20 19 21 20 18 16 14 14 16 17 15 16 17 15 13 13 12 18 18 17 19 22 14 17 10 11
5 3 9 13 8 10 13 11 9 10 12 8 16 17 16 20 18 15 15 14 14 13 14 15 16 17 15 14 17 15 14 13 15 14 16 19 18 16 16 18 15 14 9
7 9 12 11 7 7 7 8 12 12 10 16 17 14 21 18 17 14 16 17 17 15 15 17 18 16 17 21 17 17 15 15 14 15 16 16 15 14 14 14 16 16 14
9 10 9 7 9 13 13 14 12 16 18 19 16 20 20 18 19 18 17 14 15 14 12 11 11 12 12 15 14 12 14 16 19 13 15 16 14 13 14 14 14 14 16
Height
3105 3107 3108 3110 3111 3111 3111 3110 3108 3104 3103 3100 3097 3095 3093 3090 3086 3083 3080 3076 3072 3068 3065 3062 3058 3053 3050 3045 3040 3037 3035 3034 3029 3029 3030 3033 3034 3036 3039 3046 3055 3060 3068
3100 3103 3105 3106 3108 3107 3106 3104 3102 3099 3097 3095 3092 3090 3087 3085 3082 3078 3074 3069 3065 3060 3057 3054 3050 3046 3041 3037 3031 3027 3025 3024 3021 3020 3021 3025 3027 3027 3034 3039 3046 3049 3057
3097 3100 3101 3103 3103 3102 3101 3099 3096 3093 3091 3089 3087 3084 3081 3078 3074 3071 3067 3062 3057 3052 3049 3045 3040 3036 3031 3026 3022 3019 3015 3016 3014 3013 3013 3017 3018 3021 3029 3032 3037 3043 3052
3093 3095 3096 3098 3099 3098 3097 3095 3091 3088 3086 3084 3081 3078 3075 3072 3068 3063 3059 3054 3050 3046 3040 3035 3030 3026 3021 3017 3014 3010 3008 3007 3007 3006 3006 3009 3012 3015 3020 3020 3028 3035 3039
3090 3092 3093 3095 3094 3093 3091 3089 3086 3082 3080 3077 3074 3071 3067 3063 3059 3054 3051 3046 3041 3037 3033 3027 3021 3016 3011 3008 3005 3002 3000 2999 3000 2998 2999 3002 3005 3008 3014 3013 3018 3023 3032
3088 3088 3090 3090 3089 3088 3086 3084 3081 3078 3074 3070 3066 3062 3059 3054 3050 3046 3042 3038 3034 3028 3023 3017 3011 3007 3003 2999 2997 2994 2993 2991 2991 2991 2991 2995 2999 3000 3005 3009 3008 3012 3022
3084 3086 3086 3085 3083 3081 3079 3077 3075 3071 3067 3063 3059 3055 3051 3047 3043 3038 3034 3030 3025 3019 3013 3007 3003 2998 2994 2990 2988 2985 2984 2984 2984 2983 2984 2987 2991 2995 2997 3002 3003 3007 3014
3080 3080 3079 3078 3076 3074 3072 3069 3067 3063 3059 3056 3052 3047 3042 3039 3034 3029 3024 3020 3014 3009 3003 2998 2995 2990 2986 2982 2979 2977 2976 2976 2976 2976 2976 2979 2983 2987 2992 2992 2996 3001 3003
3075 3074 3073 3072 3070 3067 3063 3061 3058 3055 3051 3047 3043 3038 3033 3029 3025 3021 3016 3011 3006 3000 2995 2990 2986 2982 2978 2973 2971 2970 2968 2967 2969 2968 2968 2971 2975 2979 2984 2987 2990 2994 2996
3069 3068 3067 3065 3062 3059 3056 3052 3048 3045 3041 3036 3033 3029 3024 3020 3017 3012 3008 3002 2997 2992 2986 2982 2978 2975 2970 2965 2963 2962 2960 2959 2961 2960 2960 2962 2966 2969 2975 2979 2982 2983 2993
3065 3064 3061 3058 3055 3051 3047 3043 3039 3036 3031 3027 3023 3019 3015 3011 3007 3003 2998 2993 2988 2983 2978 2974 2970 2967 2962 2957 2955 2954 2952 2951 2952 2952 2952 2954 2957 2962 2965 2971 2975 2978 2985
3060 3056 3051 3048 3045 3042 3039 3035 3031 3027 3022 3018 3013 3009 3005 3002 2998 2994 2989 2984 2980 2975 2970 2966 2962 2958 2953 2949 2946 2945 2943 2943 2942 2943 2943 2945 2948 2952 2958 2962 2966 2972 2978
3051 3045 3041 3038 3035 3032 3029 3026 3021 3017 3013 3008 3004 3000 2995 2991 2988 2983 2979 2976 2972 2967 2962 2958 2954 2948 2944 2940 2937 2935 2934 2932 2932 2933 2933 2936 2937 2942 2948 2952 2958 2965 2973
3039 3036 3033 3030 3027 3024 3019 3015 3011 3006 3002 2998 2993 2990 2985 2981 2977 2973 2969 2965 2961 2957 2953 2948 2944 2938 2934 2931 2928 2925 2924 2922 2922 2922 2922 2924 2927 2933 2938 2943 2949 2958 2966
3032 3029 3025 3021 3018 3015 3010 3005 3000 2996 2992 2987 2983 2979 2974 2970 2966 2962 2956 2952 2948 2944 2940 2936 2932 2928 2923 2920 2917 2913 2912 2911 2910 2911 2912 2913 2916 2922 2927 2933 2940 2948 2956
3025 3021 3015 3010 3007 3003 2998 2993 2990 2986 2981 2976 2972 2967 2963 2958 2954 2948 2943 2938 2934 2929 2926 2922 2918 2915 2912 2908 2905 2901 2899 2899 2898 2900 2901 2902 2905 2909 2916 2922 2931 2938 2948
3015 3010 3005 3000 2996 2992 2987 2981 2978 2974 2969 2964 2959 2954 2949 2943 2938 2933 2928 2923 2919 2914 2911 2908 2904 2901 2899 2897 2893 2890 2886 2886 2886 2888 2890 2891 2894 2897 2904 2910 2919 2928 2938
3003 2999 2994 2990 2987 2984 2978 2971 2966 2961 2955 2950 2945 2939 2933 2927 2922 2917 2912 2908 2903 2899 2896 2893 2891 2887 2886 2883 2881 2878 2874 2873 2874 2876 2877 2880 2883 2887 2892 2900 2907 2918 2928
2994 2990 2986 2981 2977 2972 2966 2958 2954 2948 2942 2937 2931 2925 2918 2912 2907 2901 2896 2892 2888 2884 2882 2879 2877 2873 2873 2870 2867 2866 2862 2861 2862 2863 2866 2868 2871 2876 2881 2889 2895 2905 2916
2986 2982 2978 2972 2966 2961 2954 2946 2940 2934 2928 2923 2917 2911 2904 2897 2891 2885 2881 2876 2871 2869 2867 2864 2862 2860 2858 2858 2855 2853 2849 2849 2852 2852 2853 2856 2860 2864 2870 2877 2885 2896 2907
2978 2973 2968 2962 2956 2949 2941 2934 2928 2922 2915 2909 2902 2895 2888 2880 2874 2868 2863 2858 2855 2852 2851 2848 2848 2846 2844 2844 2842 2840 2837 2838 2840 2841 2843 2846 2850 2855 2860 2867 2876 2885 2896
2968 2964 2956 2950 2946 2938 2928 2921 2914 2907 2901 2894 2887 2880 2873 2865 2858 2852 2848 2844 2841 2838 2836 2834 2834 2833 2831 2829 2829 2828 2826 2826 2827 2830 2833 2835 2840 2845 2850 2854 2865 2875 2884
2957 2951 2944 2938 2933 2925 2916 2907 2901 2893 2887 2881 2873 2866 2858 2851 2844 2838 2834 2832 2828 2825 2824 2822 2821 2820 2819 2818 2817 2816 2816 2815 2816 2818 2823 2826 2830 2836 2841 2847 2855 2864 2872
2946 2940 2933 2926 2920 2912 2904 2895 2888 2880 2873 2866 2858 2851 2845 2839 2833 2828 2824 2820 2817 2815 2812 2810 2808 2807 2807 2806 2805 2806 2805 2805 2806 2808 2812 2817 2820 2825 2831 2838 2845 2851 2860
2936 2929 2921 2912 2905 2898 2890 2882 2874 2866 2859 2851 2844 2838 2832 2827 2823 2818 2814 2810 2808 2805 2802 2801 2798 2796 2796 2797 2794 2795 2796 2796 2797 2798 2801 2805 2810 2814 2819 2825 2831 2840 2848
2924 2916 2909 2900 2892 2884 2876 2869 2861 2853 2845 2839 2833 2827 2821 2817 2812 2809 2806 2804 2800 2797 2795 2792 2789 2787 2785 2786 2785 2784 2785 2786 2788 2788 2791 2794 2798 2804 2809 2816 2822 2829 2837